Regional Weather Roundup
Issued by NWS Sioux Falls, SD

Home | Current Version | Previous Version | Graphics & Text | Print | Product List | Glossary On
Versions: 1 2 3 4 5 6 7 8 9 10 11 12 13 14 15 16 17 18 19 20 21 22 23 24 25 26 27 28 29 30 31 32 33 34 35 36 37 38 39 40 41 42 43 44 45 46 47 48 49 50
000
ASUS43 KFSD 211602
RWRFSD

WEATHER ROUNDUP FOR SE SOUTH DAKOTA/SW MINNESOTA/NW IOWA
NATIONAL WEATHER SERVICE SIOUX FALLS SD
1100 AM CDT TUE OCT 21 2014

NOTE: "FAIR" INDICATES FEW OR NO CLOUDS BELOW 12,000 FEET WITH NO
SIGNIFICANT WEATHER AND OR OBSTRUCTIONS TO VISIBILITY.


SDZ038>040-050-052>070-211700-
SOUTHEAST SOUTH DAKOTA

CITY           SKY/WX    TMP DP  RH WIND       PRES   REMARKS
CHAMBERLAIN    SUNNY     67  45  44 S9        29.93F
HURON          SUNNY     62  40  44 S14G22    29.96F
MADISON        FAIR      59  39  47 S17G23    30.03F
MITCHELL       SUNNY     63  42  46 S14       29.99F
SIOUX FALLS    SUNNY     61  42  49 SE12      30.06F
WINNER         FAIR      71  46  40 S24G36    29.92S
YANKTON        SUNNY     63  45  51 SE10      30.04F
$$

MNZ071-072-080-081-089-090-097-098-211700-
SOUTHWEST MINNESOTA

CITY           SKY/WX    TMP DP  RH WIND       PRES   REMARKS
FAIRMONT       SUNNY     54  39  58 SE8       30.15F
JACKSON        SUNNY     55  41  58 SE9       30.13F
LUVERNE        SUNNY     61  41  48 S9        30.09F
MARSHALL       SUNNY     55  39  54 SE10      30.08F
MONTEVIDEO     SUNNY     54  43  66 S14       30.11S
PIPESTONE      SUNNY     59  41  51 S13G21    30.07F
REDWOOD FALLS  SUNNY     53  41  63 SE12      30.12F
TRACY          SUNNY     59  42  54 S13G18    30.11S
WINDOM         SUNNY     57  43  58 SE10      30.12F
WORTHINGTON    SUNNY     59  41  51 SE10      30.12S
$$

IAZ001>003-012>014-020>022-031-032-NEZ013-014-SDZ071-211700-
NORTHWEST IOWA

CITY           SKY/WX    TMP DP  RH WIND       PRES   REMARKS
DENISON        SUNNY     59  48  67 CALM      30.11F
ESTHERVILLE    SUNNY     53  43  68 SE9       30.14F
ORANGE CITY    SUNNY     63  41  45 S7        30.10S
SHELDON        SUNNY     61  43  51 SE12      30.09F
SIOUX CITY     SUNNY     59  43  55 SE8       30.10F
SPENCER        SUNNY     57  45  64 SE9       30.13F
STORM LAKE     SUNNY     59  43  55 SE8       30.14S
$$

ABBREVIATIONS USED IN REMARKS
   TC - TEMPERATURE IN CELSIUS
  WCI - WIND CHILL INDEX
   HX - HEAT INDEX
  VSB - VISIBILITY




USA.gov is the U.S. government's official web portal to all federal, state and local government web resources and services.